HULIANWAN GAOGUI-01 (H*)

Last updated on Tue Sep 22 2026 00:03:16 GMT+0000 (Coordinated Universal Time)

1 59069U 24040A 26264.61215488 .00000152 00000+0 00000+0 0 9990 2 59069 0.0934 339.2823 0001692 51.1794 224.0314 1.00269463 8298
UTC large
Height (km)
Speed (km/s)
/
Latitude / Longitude
Inclination (degrees)
Orbital Period (minutes)
Azimuth
Elevation
Range (km)
Doppler Factor

Next 0 passes for location: London (51.5072 / 0.1276)

No passes found over London.
HULIANWAN GAOGUI-01 (H*)